GPS BIIF-5 (39533 NORAD) Tracking and Keplerian Element Data

This shows tracking and keplerian element data for the satellite.

Feedback or suggestion? Click here.




ElementValue
Catalog39533
NameGPS BIIF-5
Epoch Orbit7190
Epoch Day12.71018552
Epoch Year2024
RAAN185.4386
Inclination53.5992
Eccentricity0.0068216
Argument of Perigee215.6367
Mean Anonmoly143.8949
Mean Motion2.00559013
Decay Rate7.6E-07
L11 39533U 14008A 24012.71018552 .00000076 00000+0 00000+0 0 9995
L22 39533 53.5992 185.4386 0068216 215.6367 143.8949 2.00559013 71906



Live tracking and technical data element details for GPS BIIF-5 (NORAD 39533). GPS BIIF-5 can be tracked NOW for your location showing map with azimuth and elevation plus other details from your city location.







IsCatalogInMostPopularTable: catalog: 39533, numindb: 713
Update: records affected: 1



GetName: 39533 GPS BIIF-5

Hit Count: updated at: Fri, 19 Apr 2024 12:36:25 GMT